www.pogodaiklimat.ru

Погода и климат >> Архив погоды >> Австрия >> Енбах


ПОГОДА в Енбахе

  • Прогноз погоды в Енбахе
  • Монитор погоды в Енбахе

АРХИВ ПОГОДЫ в Енбахе

Время (UTC), дата Ветер
(напр.,м/с)
 
Видим.   Явления Облачность Т
(С)
Тd
(С)
f
(%)
Тe
(С)
Тes
(С)
Комфортность P
(гПа)
Po
(гПа)
Тmin
(С)
Tmax
(С)
R
(мм)
R24
(мм)
S
(см)
01 10.06 штиль 0 н/о н/о +16.3 +14.6 90 +16 +16 1016.9 955.3
02 10.06 ЮЗ 2 н/о н/о +15.5 +14.1 91 +15 +15 1016.9 955.1
03 10.06 ЮЗ 2 н/о н/о +16.5 +14.3 87 +17 +17 1016.1 954.6
04 10.06 З 2 н/о н/о +16.0 +13.9 87 +16 +16 1015.7 954.1
05 10.06 ЮЗ 2 н/о осадки н/о +15.8 +14.3 91 +16 +16 1016.4 954.7 0.3
06 10.06 ЮВ 1 н/о ливневой дождь {осадки} н/о +16.3 +14.5 89 +17 +17 1016.3 954.7 +15.4 +24.9 0.7
07 10.06 З 1 н/о н/о +16.7 +14.7 88 +18 +18 1015.9 954.4 0.0
08 10.06 Ю 2 н/о н/о +18.0 +14.7 81 +19 +19 1014.9 953.8 0.0
09 10.06 Ю 1 н/о н/о +20.1 +15.2 73 +24 +24 комфорт 1013.8 953.2 0.0
10 10.06 В 1 н/о н/о +21.2 +15.0 68 +24 +24 комфорт 1013.1 952.7
11 10.06 В 3 н/о н/о +21.7 +15.2 67 +25 +25 комфорт 1012.6 952.4
12 10.06 СВ 4 н/о в посл. час осадки н/о +22.6 +15.5 64 +27 +27 душно 1010.2 950.3 0.2
13 10.06 СВ 3 н/о н/о +24.4 +14.9 55 +27 +27 жарко 1008.6 949.1
14 10.06 В 2 н/о н/о +25.3 +14.2 50 +28 +28 жарко 1007.7 948.4
15 10.06 ЮВ 2 н/о н/о +26.0 +16.3 55 +29 +29 душно 1006.9 947.9
16 10.06 штиль 0 н/о н/о +24.2 +17.9 68 +28 +28 душно 1008.4 949.0
17 10.06 СЗ 2
{24}
н/о в посл. час осадки н/о +18.1 +15.4 84 +19 +19 1010.3 949.5 3
18 10.06 С 1
{24}
н/о {осадки} н/о +17.7 +15.5 87 +19 +19 1009.5 948.7 +16.2 +26.4 3
19 10.06 СВ 7
{13}
н/о н/о +20.2 +13.7 66 +22 +22 комфорт 1009.9 949.5
20 10.06 В 5
{13}
н/о н/о +19.1 +14.5 75 +20 +20 1010.2 949.6
21 10.06 СВ 7
{13}
н/о н/о +19.1 +13.1 68 +20 +20 1009.1 948.5
22 10.06 СВ 5 н/о н/о +18.9 +13.0 69 +20 +20 1008.4 947.8
23 10.06 СВ 3 н/о н/о +18.0 +13.2 74 +18 +18 1008.5 947.7
00 11.06 СВ 8
{13}
н/о н/о +17.3 +12.6 74 +16 +16 1009.0 948.0
01 11.06 В 8
{13}
н/о н/о +18.0 +12.6 71 +17 +17 1008.6 947.8
02 11.06 В 8
{13}
н/о н/о +16.6 +13.1 80 +15 +15 1008.9 947.8
03 11.06 В 9
{15}
н/о н/о +16.9 +12.2 74 +15 +15 1008.8 947.8
04 11.06 В 11
{20}
н/о н/о +17.8 +11.4 66 +16 +16 1009.4 948.5 0.0
05 11.06 В 6
{20}
н/о н/о +17.7 +11.3 66 +17 +17 1011.4 950.3
06 11.06 С 4
{20}
н/о н/о +16.9 +9.4 61 +16 +16 1011.1 949.9 +16.2 +20.5 0.0
07 11.06 СВ 6 н/о н/о +17.5 +11.4 67 +17 +17 1010.1 949.1
08 11.06 СВ 6 н/о н/о +18.6 +11.9 65 +19 +19 1008.8 948.1
09 11.06 В 6 н/о н/о +19.9 +12.1 61 +21 +21 комфорт 1007.8 947.4
10 11.06 В 5 н/о н/о +21.5 +13.1 59 +24 +24 комфорт 1006.5 946.5
11 11.06 В 4 н/о н/о +22.4 +13.4 57 +25 +25 комфорт 1006.0 946.2
12 11.06 В 4 н/о н/о +24.5 +14.6 54 +27 +27 жарко 1004.5 945.3
13 11.06 В 3 н/о н/о +25.5 +15.0 52 +28 +28 жарко 1003.9 944.9
14 11.06 В 4 н/о н/о +25.6 +14.4 50 +28 +28 жарко 1004.2 945.2
15 11.06 В 3 н/о н/о +26.5 +16.2 53 +30 +30 душно 1003.1 944.4
16 11.06 З 2 н/о н/о +24.2 +17.2 65 +28 +28 душно 1004.4 945.2
17 11.06 З 4 н/о н/о +25.6 +8.7 34 +26 +26 жарко 1004.8 945.6
18 11.06 З 2 н/о н/о +24.5 +9.6 39 +25 +25 комфорт 1005.2 945.8 +16.8 +27.2
19 11.06 З 1 н/о н/о +21.8 +11.2 51 +24 +24 комфорт 1007.1 947.1
20 11.06 З 2 н/о н/о +20.9 +8.1 44 +23 +23 комфорт 1008.2 947.9
21 11.06 ЮЗ 4 н/о н/о +20.1 +8.6 47 +21 +21 комфорт 1008.3 947.9
22 11.06 ЮЗ 2 н/о н/о +19.5 +8.8 50 +21 +21 комфорт 1008.6 948.0
23 11.06 З 2 н/о в посл. час осадки н/о +17.7 +10.7 64 +18 +18 1009.9 948.9 0.2
00 12.06 штиль 0 н/о {осадки} н/о +15.4 +12.1 81 +15 +15 1009.5 948.1 0.2
01 12.06 штиль 0 н/о н/о +14.8 +12.1 84 +15 +15 1009.3 947.8
02 12.06 ЮЗ 2 н/о н/о +14.7 +11.8 83 +14 +14 1008.9 947.4
03 12.06 СВ 1 н/о н/о +14.7 +11.6 82 +15 +15 1008.1 946.6
04 12.06 штиль 0 н/о н/о +14.3 +11.4 83 +14 +14 1007.7 946.2
05 12.06 штиль 0 н/о н/о +14.4 +11.6 83 +14 +14 1007.2 945.7
06 12.06 ЮВ 1 н/о н/о +16.8 +11.8 72 +18 +18 1005.8 944.9 +13.9 +25.3 0.2
07 12.06 В 1 н/о н/о +19.4 +12.4 64 +22 +22 комфорт 1004.8 944.5
08 12.06 Ю 1 н/о н/о +21.3 +12.9 59 +24 +24 комфорт 1004.2 944.3
09 12.06 ЮВ 1 н/о н/о +23.5 +13.5 53 +26 +26 жарко 1003.4 944.0
10 12.06 В 2 н/о н/о +24.8 +15.4 56 +28 +28 жарко 1003.2 944.1
11 12.06 В 2 н/о н/о +26.3 +15.4 51 +29 +29 жарко 1003.1 944.3
12 12.06 СВ 6
{14}
н/о н/о +24.1 +12.2 47 +26 +26 жарко 1004.9 945.5
13 12.06 СВ 7
{14}
н/о н/о +22.8 +11.4 49 +25 +25 комфорт 1005.9 946.2
14 12.06 СВ 7
{18}
н/о осадки н/о +21.0 +11.1 53 +23 +23 комфорт 1007.7 947.5 0.0
15 12.06 В 9
{18}
н/о ливневой дождь {осадки} н/о +19.6 +12.9 65 +20 +20 1009.0 948.5 0.3
16 12.06 В 9
{15}
н/о н/о +20.3 +12.1 59 +22 +22 комфорт 1008.9 948.5 0.0
17 12.06 В 8
{13}
н/о н/о +19.7 +11.7 60 +21 +21 комфорт 1009.2 948.7
18 12.06 В 7
{18}
н/о {ливн. осадки} н/о +19.2 +11.5 61 +20 +20 1010.2 949.5 +16.2 +26.7 0.3
19 12.06 В 4 н/о н/о +18.8 +11.6 63 +19 +19 1010.5 949.7
20 12.06 В 4 н/о н/о +18.3 +11.4 64 +18 +18 1011.6 950.7
21 12.06 СВ 5 н/о н/о +18.1 +11.2 64 +18 +18 1012.0 951.0
22 12.06 СВ 5 н/о н/о +17.9 +11.2 65 +18 +18 1012.9 951.8
23 12.06 СВ 5 н/о н/о +17.4 +11.7 69 +17 +17 1013.0 951.8
00 13.06 СВ 5 н/о н/о +17.0 +11.6 70 +16 +16 1013.2 951.9
01 13.06 В 4 н/о н/о +16.8 +11.6 71 +16 +16 1013.4 952.0
02 13.06 СВ 3 н/о н/о +16.2 +11.5 74 +16 +16 1013.6 952.1
03 13.06 СВ 3 н/о н/о +15.8 +11.5 76 +15 +15 1013.8 952.2
04 13.06 СВ 3 н/о н/о +15.8 +11.3 75 +15 +15 1014.2 952.6
05 13.06 СВ 3 н/о н/о +15.7 +11.1 74 +15 +15 1014.9 953.2
06 13.06 СВ 3 н/о н/о +16.2 +10.9 71 +16 +16 1015.0 953.4 +15.6 +19.5
07 13.06 В 5 н/о н/о +17.8 +10.0 60 +17 +17 1014.3 953.1
08 13.06 В 3 н/о н/о +19.7 +9.1 50 +21 +21 комфорт 1013.3 952.5
09 13.06 В 3 н/о н/о +20.9 +10.3 51 +23 +23 комфорт 1012.3 951.8
10 13.06 В 3 н/о н/о +22.5 +11.5 50 +25 +25 комфорт 1011.1 951.0
11 13.06 В 5 н/о н/о +23.9 +11.9 47 +26 +26 жарко 1010.0 950.3
12 13.06 В 4 н/о н/о +25.6 +11.6 42 +27 +27 жарко 1009.2 949.8
13 13.06 СВ 6 н/о н/о +26.4 +12.6 42 +28 +28 жарко 1008.7 949.5
14 13.06 СВ 6 н/о н/о +27.0 +12.9 42 +29 +29 жарко 1008.5 949.5
15 13.06 СВ 7 н/о н/о +26.2 +10.9 38 +27 +27 жарко 1009.3 950.0
16 13.06 СВ 7
{13}
н/о н/о +25.8 +10.3 38 +27 +27 жарко 1009.7 950.3
17 13.06 СВ 7 н/о н/о +24.4 +10.7 42 +26 +26 жарко 1010.8 951.1
18 13.06 СВ 7
{13}
н/о н/о +23.4 +11.0 46 +26 +26 жарко 1012.0 952.0 +16.1 +27.1
19 13.06 В 6 н/о н/о +22.6 +11.3 49 +25 +25 комфорт 1013.3 953.1
20 13.06 СВ 7 н/о н/о +22.1 +11.2 50 +24 +24 комфорт 1014.8 954.4
21 13.06 С 4 н/о н/о +20.8 +11.1 54 +23 +23 комфорт 1015.6 954.9
22 13.06 С 4 н/о н/о +20.9 +10.9 53 +23 +23 комфорт 1016.2 955.5
23 13.06 СВ 4 н/о н/о +19.9 +11.3 58 +21 +21 комфорт 1016.9 956.0
00 14.06 штиль 0 н/о н/о +16.6 +11.7 73 +17 +17 1018.0 956.3
01 14.06 ЮЗ 1 н/о н/о +15.2 +11.6 79 +16 +16 1018.5 956.5
02 14.06 штиль 0 н/о н/о +13.8 +11.8 88 +13 +13 1019.1 956.8
03 14.06 З 1 н/о н/о +13.3 +11.8 91 +13 +13 1019.3 956.9
04 14.06 З 1 н/о н/о +13.0 +10.4 84 +13 +13 1020.1 957.5
05 14.06 З 1 н/о н/о +14.2 +10.6 79 +15 +15 1019.8 957.5
06 14.06 ЮЗ 1 н/о н/о +16.4 +10.4 68 +17 +17 1018.9 957.1 +12.7 +23.5
07 14.06 Ю 1 н/о н/о +18.4 +10.7 61 +20 +20 1018.1 956.8
08 14.06 ЮЗ 3 н/о н/о +20.1 +11.6 58 +22 +22 комфорт 1017.4 956.5
09 14.06 ЮЗ 3 н/о н/о +22.6 +11.9 51 +25 +25 комфорт 1016.0 955.7
10 14.06 штиль 0 н/о н/о +24.8 +11.7 44 +26 +26 жарко 1015.1 955.2
11 14.06 З 1 н/о н/о +26.4 +8.4 32 +26 +26 жарко 1014.1 954.5
12 14.06 штиль 0 н/о н/о +29.1 +9.1 29 +29 +29 жарко 1012.5 953.6
13 14.06 В 1 н/о н/о +31.3 +7.6 23 +30 +30 жарко 1011.1 952.6
14 14.06 В 2 н/о н/о +33.5 +6.6 19 +32 +32 жарко 1009.4 951.4
15 14.06 ЮЗ 5 н/о н/о +33.5 +5.8 18 +31 +31 жарко 1009.1 951.1
16 14.06 ЮЗ 5 н/о н/о +32.7 +4.1 17 +30 +30 жарко 1008.8 950.7
17 14.06 З 7
{13}
н/о н/о +32.0 +3.1 16 +29 +29 жарко 1008.7 950.4
18 14.06 З 2
{13}
н/о н/о +28.8 +7.6 26 +28 +28 жарко 1009.1 950.3 +16.1 +33.6
19 14.06 штиль 0 н/о н/о +28.8 +5.5 23 +28 +28 жарко 1008.8 950.0
20 14.06 штиль 0 н/о н/о +25.8 +9.0 35 +26 +26 жарко 1009.7 950.3
21 14.06 СВ 1 н/о н/о +26.4 +6.2 28 +26 +26 жарко 1010.5 951.1
22 14.06 Ю 4 н/о н/о +26.5 +6.8 29 +26 +26 жарко 1010.3 951.0
23 14.06 ЮЗ 2 н/о н/о +26.2 +7.2 30 +26 +26 жарко 1010.5 951.1
00 15.06 З 2 н/о н/о +25.3 +8.6 35 +26 +26 жарко 1010.7 951.1
01 15.06 Ю 5 н/о н/о +25.4 +9.1 36 +26 +26 жарко 1010.5 951.0
02 15.06 З 2 н/о н/о +25.4 +8.3 34 +26 +26 жарко 1010.0 950.5
03 15.06 С 1 н/о н/о +22.2 +9.7 45 +24 +24 комфорт 1010.6 950.5
04 15.06 З 1 н/о н/о +21.1 +9.7 48 +22 +22 комфорт 1010.7 950.3
05 15.06 З 1 н/о н/о +19.3 +11.1 59 +21 +21 комфорт 1011.2 950.5
06 15.06 В 1 н/о н/о +22.2 +11.1 49 +24 +24 комфорт 1011.4 951.2 +18.9 +29.2
07 15.06 ЮВ 1 н/о н/о +25.3 +12.5 45 +27 +27 жарко 1010.7 951.2
08 15.06 В 3 н/о н/о +25.7 +12.6 44 +27 +27 жарко 1010.5 951.1
09 15.06 ЮВ 1 н/о н/о +27.9 +12.9 40 +30 +30 жарко 1010.1 951.1
10 15.06 В 5 н/о н/о +28.5 +12.2 36 +30 +30 жарко 1009.9 951.1
11 15.06 В 6 н/о н/о +27.6 +13.7 42 +29 +29 жарко 1010.2 951.2
12 15.06 СВ 7 н/о н/о +26.9 +13.8 44 +29 +29 жарко 1011.1 951.9 0.0
13 15.06 В 7 н/о н/о +26.3 +14.3 48 +29 +29 жарко 1010.8 951.5 0.0
14 15.06 СВ 3 н/о н/о +26.1 +13.1 45 +28 +28 жарко 1011.2 951.8 0.0
15 15.06 СВ 2 н/о н/о +25.5 +12.6 45 +27 +27 жарко 1011.8 952.3 0.0
16 15.06 В 5 н/о н/о +24.8 +12.3 46 +27 +27 жарко 1012.0 952.3
17 15.06 СВ 3 н/о н/о +24.4 +12.5 47 +26 +26 жарко 1011.8 952.1
18 15.06 СВ 5 н/о н/о +23.7 +12.7 50 +26 +26 жарко 1012.0 952.1 +21.9 +28.9 0.0
19 15.06 СВ 5 н/о н/о +23.4 +13.0 52 +26 +26 жарко 1012.0 952.1
20 15.06 В 3 н/о н/о +22.1 +15.2 65 +26 +26 душно 1012.8 952.6
21 15.06 СВ 4 н/о н/о +21.3 +14.9 67 +24 +24 комфорт 1013.1 952.7
22 15.06 СВ 5 н/о н/о +21.2 +14.6 66 +24 +24 комфорт 1013.7 953.3
23 15.06 СВ 4 н/о н/о +20.5 +14.8 70 +23 +23 комфорт 1014.3 953.7
00 16.06 С 7
{17}
н/о н/о +20.1 +9.1 49 +21 +21 комфорт 1016.2 955.3
01 16.06 З 4
{17}
н/о н/о +19.5 +9.0 51 +20 +20 1016.7 955.6
02 16.06 С 7 н/о осадки н/о +17.5 +10.0 61 +17 +17 1017.4 955.9 0.4
03 16.06 С 6
{17}
н/о {осадки} н/о +16.4 +11.1 71 +15 +15 1018.6 956.8 0.4
04 16.06 СВ 4 н/о н/о +16.2 +11.0 71 +16 +16 1018.8 957.0
05 16.06 С 1 н/о ливневой дождь н/о +15.3 +12.6 84 +16 +16 1019.8 957.8 0.4
06 16.06 штиль 0
{17}
н/о в посл. час осадки {ливн. осадки} н/о +15.7 +13.0 84 +15 +15 1020.2 958.2 +15.0 +23.8 1
07 16.06 СВ 4 н/о н/о +16.4 +12.2 76 +16 +16 1020.3 958.5
08 16.06 В 6 н/о н/о +17.9 +10.9 64 +17 +17 1019.7 958.2
09 16.06 СВ 4 н/о н/о +19.5 +11.1 58 +21 +21 комфорт 1019.8 958.6
10 16.06 СВ 6 н/о н/о +19.3 +11.4 60 +20 +20 1020.1 958.8
11 16.06 В 5 н/о н/о +19.1 +11.0 59 +20 +20 1020.2 958.9
12 16.06 В 4 н/о н/о +19.3 +11.2 59 +20 +20 1020.2 958.9
13 16.06 В 4 н/о н/о +19.1 +11.6 62 +20 +20 1020.2 958.9
14 16.06 В 2 н/о н/о +19.8 +10.3 54 +22 +22 комфорт 1020.1 958.9
15 16.06 В 3 н/о н/о +18.9 +9.5 54 +20 +20 1021.0 959.6
16 16.06 СВ 4 н/о н/о +19.3 +9.6 53 +20 +20 1020.2 958.9
17 16.06 СВ 4 н/о н/о +19.3 +10.8 58 +20 +20 1020.5 959.2
18 16.06 СВ 3 н/о н/о +19.1 +10.4 57 +20 +20 1020.7 959.3 +15.3 +20.2
19 16.06 СВ 3 н/о н/о +18.4 +10.5 60 +19 +19 1020.8 959.3
20 16.06 СВ 3 н/о н/о +18.1 +10.6 62 +18 +18 1021.6 960.0
21 16.06 СВ 3 н/о н/о +17.9 +11.3 65 +18 +18 1021.7 960.1
22 16.06 СВ 4 н/о н/о +17.6 +11.8 69 +17 +17 1021.7 960.0
23 16.06 СВ 3 н/о н/о +17.4 +10.6 64 +17 +17 1021.3 959.6
00 17.06 СВ 4 н/о н/о +17.2 +10.6 65 +17 +17 1021.4 959.6

 

Местоположение метеостанции Енбах (Австрия): широта 47.38 долгота 11.75 высота над уровнем моря 530 м.

В архиве по умолчанию представлена погода в Енбахе за последнюю неделю. Архивные данные за месяц целиком и за предыдущие месяцы, начиная с января 2011 года, Вы можете получить, выбрав интересующий диапазон дат из раскрывающегося списка и нажав кнопку "Ввод!".


*Определитесь, кто Вы:
робот инопланетянин человек

Внимание! Время в таблицах - всемирное. Для получения местного времени необходимо прибавить поправку, которая равна 1 ч.

Смотрите также архив погоды в соседних городах и на ближайших метеорологических станциях:

Погода в Ахенкирьхе (Австрия) (14 км)
Погода в Ахенкирьхе (Австрия) (16 км)
Погода в Майрхофене (Австрия) (25 км)
Погода в Пачеркофеле (Австрия) (28 км)
Погода в Инсбруке (Австрия) (33 км)
Погода в Инсбруке АМС (Австрия) (33 км)
Погода в Кримле (Австрия) (36 км)
Погода в Куфштайне (Австрия) (39 км)
Погода в Зефельд-ин-Тироль (Австрия) (43 км)
Погода в Бреннере новая (Австрия) (45 км)

Пояснения к столбцам:

Ветер - указаны скорость ветра в м/с - средняя за 10 мин, порывы в срок и между сроками (в фигурных скобках) и направление, откуда дует ветер: С - северный, СВ - северо-восточный, В - восточный, ЮВ - юго-восточный, Ю - южный, ЮЗ - юго-западный, З - западный, СЗ - северо-западный.
Видимость - горизонтальная дальность видимости в метрах или километрах. При видимости от 1 до 10 км при отсутствии осадков обычно наблюдается дымка, при ухудшении видимости до 1 км и менее - туман. В сухую погоду видимость может ухудшаться дымом, пылью или мглою.
Явления - указаны атмосферные явления, наблюдавшиеся в срок или в последний час перед сроком; фигурными скобками обозначены явления, наблюдавшиеся между сроками (за 1-3 часа до срока); квадратными скобками обозначены град или гололедные отложения с указанием их диаметра в мм.
Облачность - указаны через наклонную черту общая и нижняя облачность в баллах и высота нижней границы облаков в метрах; квадратными скобками обозначены формы облаков: Ci - перистые, Cs - перисто-слоистые, Cc - перисто-кучевые, Ac - высококучевые, As - высокослоистые, Sc - слоисто-кучевые, Ns - слоисто-дождевые, Cu - кучевые, Cb - кучево-дождевые. Подробнее классификацию облаков см. в Атласе облаков (PDF).
T - Температура воздуха - температура, измеренная на высоте 2 м над землей.
Td - Температура точки росы - температура, при понижении до которой содержащийся в воздухе водяной пар достигнет насыщения.
f - Относительная влажность воздуха - влажноcть воздуха, измеренная на высоте 2 м над землей.
Te - Эффективная температура - температура, которую ощущает одетый по сезону человек в тени. Характеристика душности погоды. При расчете учитывается влияние влажности воздуха и скорости ветра на теплоощущения человека.
Tes - Эффективная температура на солнце - температура, которую ощущает человек, с поправкой на солнечный нагрев. Характеристика знойности погоды. Зависит от высоты солнца над горизонтом, облачности и скорости ветра. Ночью, в пасмурную погоду, а также при ветре 12 м/с и более поправка равна нулю.
P - Атмосферное давление - приведенное к уровню моря атмосферное давление.
Po - Атмосферное давление - измеренное на уровне метеостанции атмосферное давление.
Tmin - Минимальная температура - минимум температуры воздуха на высоте 2 м над землей.
Tmax - Максимальная температура - максимум температуры воздуха на высоте 2 м над землей.
R - Количество осадков - Количество выпавших осадков за период времени, мм. При наведении курсора мыши на число - период времени, за который выпало указанное количество осадков.
R24 - Количество осадков - Количество выпавших осадков за 24 часа, мм.
S - Снежный покров - Высота снежного покрова, см. При наведении курсора мыши на число - состояние снежного покрова и степень покрытия местности в баллах.